Time,TemperatureF,DewpointF,PressureIn,WindDirection,WindDirectionDegrees,WindSpeedMPH,WindSpeedGustMPH,Humidity,HourlyPrecipIn,Conditions,Clouds,dailyrainin,SoftwareType,DateUTC
2013-03-06 00:01:00,32.0,-3.0,-100.00,West,267,5.0,10.0,21,0.00,,,-99.99,,2013-03-06 07:01:00,
2013-03-06 00:11:00,31.0,-3.0,-100.00,WNW,296,3.0,9.0,22,0.00,,,-99.99,,2013-03-06 07:11:00,
2013-03-06 00:22:00,30.0,-4.0,-100.00,North,10,1.0,4.0,22,0.00,,,-99.99,,2013-03-06 07:22:00,
2013-03-06 00:32:00,32.0,-3.0,-100.00,WNW,289,4.0,11.0,22,0.00,,,-99.99,,2013-03-06 07:32:00,
2013-03-06 00:42:00,33.0,-3.0,-100.00,WSW,246,12.0,17.0,21,0.00,,,-99.99,,2013-03-06 07:42:00,
2013-03-06 00:52:00,34.0,-3.0,-100.00,SW,232,18.0,26.0,20,0.00,,,-99.99,,2013-03-06 07:52:00,
2013-03-06 01:01:00,33.0,-2.0,-100.00,SW,227,24.0,29.0,21,0.00,,,-99.99,,2013-03-06 08:01:00,
2013-03-06 01:11:00,34.0,-3.0,-100.00,SW,227,25.0,30.0,20,0.00,,,-99.99,,2013-03-06 08:11:00,
2013-03-06 01:21:00,35.0,-4.0,-100.00,SW,229,26.0,31.0,18,0.00,,,-99.99,,2013-03-06 08:21:00,
2013-03-06 01:32:00,35.0,-3.0,-100.00,SW,232,24.0,29.0,19,0.00,,,-99.99,,2013-03-06 08:32:00,
2013-03-06 01:42:00,35.0,-3.0,-100.00,SW,233,24.0,29.0,19,0.00,,,-99.99,,2013-03-06 08:42:00,
2013-03-06 01:52:00,33.0,-1.0,-100.00,SW,232,19.0,23.0,22,0.00,,,-99.99,,2013-03-06 08:52:00,
2013-03-06 02:01:00,33.0,-1.0,-100.00,SW,226,22.0,27.0,23,0.00,,,-99.99,,2013-03-06 09:01:00,
2013-03-06 02:12:00,33.0,-1.0,-100.00,SW,222,24.0,28.0,23,0.00,,,-99.99,,2013-03-06 09:12:00,
2013-03-06 02:21:00,31.0,0.0,-100.00,SW,216,22.0,26.0,25,0.00,,,-99.99,,2013-03-06 09:21:00,
2013-03-06 02:31:00,32.0,0.0,-100.00,SW,216,26.0,30.0,25,0.00,,,-99.99,,2013-03-06 09:31:00,
2013-03-06 02:42:00,32.0,0.0,-100.00,SSW,213,27.0,30.0,25,0.00,,,-99.99,,2013-03-06 09:42:00,
2013-03-06 02:51:00,32.0,1.0,-100.00,SSW,210,26.0,30.0,27,0.00,,,-99.99,,2013-03-06 09:51:00,
2013-03-06 03:01:00,32.0,1.0,-100.00,SSW,209,28.0,32.0,27,0.00,,,-99.99,,2013-03-06 10:01:00,
2013-03-06 03:11:00,32.0,1.0,-100.00,SSW,210,28.0,32.0,26,0.00,,,-99.99,,2013-03-06 10:11:00,
2013-03-06 03:21:00,32.0,3.0,-100.00,SW,217,26.0,29.0,28,0.00,,,-99.99,,2013-03-06 10:21:00,
2013-03-06 03:32:00,33.0,4.0,-100.00,SW,220,24.0,28.0,29,0.00,,,-99.99,,2013-03-06 10:32:00,
2013-03-06 03:42:00,33.0,4.0,-100.00,SW,220,25.0,30.0,29,0.00,,,-99.99,,2013-03-06 10:42:00,
2013-03-06 03:51:00,33.0,5.0,-100.00,SW,223,27.0,31.0,30,0.00,,,-99.99,,2013-03-06 10:51:00,
2013-03-06 04:02:00,33.0,5.0,-100.00,SW,227,24.0,29.0,31,0.00,,,-99.99,,2013-03-06 11:02:00,
2013-03-06 04:11:00,32.0,5.0,-100.00,SW,227,24.0,29.0,31,0.00,,,-99.99,,2013-03-06 11:11:00,
2013-03-06 04:22:00,33.0,6.0,-100.00,SW,227,24.0,29.0,32,0.00,,,-99.99,,2013-03-06 11:22:00,
2013-03-06 04:32:00,32.0,7.0,-100.00,SW,230,22.0,25.0,34,0.00,,,-99.99,,2013-03-06 11:32:00,
2013-03-06 04:42:00,31.0,7.0,-100.00,SW,233,20.0,24.0,36,0.00,,,-99.99,,2013-03-06 11:42:00,
2013-03-06 04:52:00,31.0,8.0,-100.00,SW,234,19.0,22.0,36,0.00,,,-99.99,,2013-03-06 11:52:00,
2013-03-06 05:02:00,31.0,8.0,-100.00,WSW,237,19.0,22.0,37,0.00,,,-99.99,,2013-03-06 12:02:00,
2013-03-06 05:11:00,31.0,9.0,-100.00,WSW,240,19.0,21.0,38,0.00,,,-99.99,,2013-03-06 12:11:00,
2013-03-06 05:21:00,32.0,8.0,-100.00,WSW,239,19.0,21.0,36,0.00,,,-99.99,,2013-03-06 12:21:00,
2013-03-06 05:32:00,31.0,9.0,-100.00,WSW,248,17.0,22.0,39,0.00,,,-99.99,,2013-03-06 12:32:00,
2013-03-06 05:42:00,31.0,9.0,-100.00,WSW,239,17.0,21.0,39,0.00,,,-99.99,,2013-03-06 12:42:00,
2013-03-06 05:52:00,32.0,9.0,-100.00,SW,232,20.0,24.0,38,0.00,,,-99.99,,2013-03-06 12:52:00,
2013-03-06 06:02:00,31.0,9.0,-100.00,SW,232,20.0,24.0,39,0.00,,,-99.99,,2013-03-06 13:02:00,
2013-03-06 06:11:00,31.0,9.0,-100.00,SW,233,21.0,24.0,39,0.00,,,-99.99,,2013-03-06 13:11:00,
2013-03-06 06:22:00,31.0,9.0,-100.00,WSW,237,21.0,24.0,39,0.00,,,-99.99,,2013-03-06 13:22:00,
2013-03-06 06:32:00,32.0,9.0,-100.00,WSW,240,22.0,24.0,37,0.00,,,-99.99,,2013-03-06 13:32:00,
2013-03-06 06:42:00,33.0,9.0,-100.00,WSW,240,22.0,25.0,35,0.00,,,-99.99,,2013-03-06 13:42:00,
2013-03-06 06:52:00,33.0,9.0,-100.00,WSW,240,23.0,26.0,35,0.00,,,-99.99,,2013-03-06 13:52:00,
2013-03-06 07:01:00,32.0,9.0,-100.00,WSW,240,22.0,26.0,37,0.00,,,-99.99,,2013-03-06 14:01:00,
2013-03-06 07:11:00,34.0,9.0,-100.00,WSW,243,23.0,26.0,35,0.00,,,-99.99,,2013-03-06 14:11:00,
2013-03-06 07:21:00,35.0,9.0,-100.00,WSW,246,21.0,26.0,35,0.00,,,-99.99,,2013-03-06 14:21:00,
2013-03-06 07:32:00,35.0,10.0,-100.00,WSW,243,19.0,23.0,34,0.00,,,-99.99,,2013-03-06 14:32:00,
2013-03-06 07:42:00,35.0,10.0,-100.00,WSW,240,16.0,21.0,35,0.00,,,-99.99,,2013-03-06 14:42:00,
2013-03-06 07:52:00,35.0,10.0,-100.00,WSW,237,17.0,21.0,35,0.00,,,-99.99,,2013-03-06 14:52:00,
2013-03-06 08:02:00,35.0,10.0,-100.00,SW,236,17.0,21.0,35,0.00,,,-99.99,,2013-03-06 15:02:00,
2013-03-06 08:11:00,35.0,10.0,-100.00,SW,234,17.0,21.0,35,0.00,,,-99.99,,2013-03-06 15:11:00,
2013-03-06 08:21:00,37.0,10.0,-100.00,SW,233,21.0,26.0,33,0.00,,,-99.99,,2013-03-06 15:21:00,
2013-03-06 08:32:00,37.0,11.0,-100.00,SW,230,19.0,24.0,33,0.00,,,-99.99,,2013-03-06 15:32:00,
2013-03-06 08:42:00,39.0,11.0,-100.00,SW,224,18.0,22.0,31,0.00,,,-99.99,,2013-03-06 15:42:00,
2013-03-06 08:52:00,40.0,11.0,-100.00,SW,222,17.0,23.0,30,0.00,,,-99.99,,2013-03-06 15:52:00,
2013-03-06 09:01:00,42.0,12.0,-100.00,SW,219,15.0,23.0,29,0.00,,,-99.99,,2013-03-06 16:01:00,
2013-03-06 09:11:00,42.0,13.0,-100.00,SW,217,16.0,23.0,30,0.00,,,-99.99,,2013-03-06 16:11:00,
2013-03-06 09:21:00,43.0,12.0,-100.00,SW,217,17.0,24.0,28,0.00,,,-99.99,,2013-03-06 16:21:00,
2013-03-06 09:32:00,42.0,13.0,-100.00,SW,215,20.0,26.0,29,0.00,,,-99.99,,2013-03-06 16:32:00,
2013-03-06 09:42:00,43.0,12.0,-100.00,SSW,213,21.0,27.0,29,0.00,,,-99.99,,2013-03-06 16:42:00,
2013-03-06 09:52:00,44.0,13.0,-100.00,SW,223,26.0,35.0,29,0.00,,,-99.99,,2013-03-06 16:52:00,
2013-03-06 10:01:00,44.0,14.0,-100.00,SW,222,26.0,34.0,29,0.00,,,-99.99,,2013-03-06 17:01:00,
2013-03-06 10:11:00,44.0,13.0,-100.00,SW,224,25.0,32.0,28,0.00,,,-99.99,,2013-03-06 17:11:00,
2013-03-06 10:21:00,45.0,14.0,-100.00,SW,230,21.0,26.0,27,0.00,,,-99.99,,2013-03-06 17:21:00,
2013-03-06 10:32:00,46.0,13.0,-100.00,SW,222,16.0,21.0,26,0.00,,,-99.99,,2013-03-06 17:32:00,
2013-03-06 10:41:00,46.0,13.0,-100.00,SSW,208,15.0,20.0,27,0.00,,,-99.99,,2013-03-06 17:41:00,
2013-03-06 10:52:00,46.0,14.0,-100.00,SSW,212,13.0,19.0,27,0.00,,,-99.99,,2013-03-06 17:52:00,
2013-03-06 11:02:00,47.0,13.0,-100.00,SW,215,14.0,23.0,26,0.00,,,-99.99,,2013-03-06 18:02:00,
2013-03-06 11:28:00,47.0,14.0,-100.00,SSW,195,14.0,21.0,26,0.00,,,-99.99,,2013-03-06 18:28:00,
2013-03-06 11:42:00,48.0,13.0,-100.00,South,171,14.0,24.0,24,0.00,,,-99.99,,2013-03-06 18:42:00,
2013-03-06 11:52:00,48.0,13.0,-100.00,South,171,14.0,21.0,24,0.00,,,-99.99,,2013-03-06 18:52:00,
2013-03-06 12:02:00,49.0,12.0,-100.00,South,171,16.0,23.0,22,0.00,,,-99.99,,2013-03-06 19:02:00,
2013-03-06 12:11:00,48.0,12.0,-100.00,South,171,17.0,23.0,22,0.00,,,-99.99,,2013-03-06 19:11:00,
2013-03-06 12:21:00,49.0,12.0,-100.00,South,171,18.0,29.0,22,0.00,,,-99.99,,2013-03-06 19:21:00,
2013-03-06 12:32:00,50.0,11.0,-100.00,South,171,20.0,27.0,21,0.00,,,-99.99,,2013-03-06 19:32:00,
2013-03-06 12:43:00,50.0,10.0,-100.00,SW,227,21.0,27.0,19,0.00,,,-99.99,,2013-03-06 19:43:00,
2013-03-06 12:52:00,50.0,8.0,-100.00,SW,230,21.0,31.0,17,0.00,,,-99.99,,2013-03-06 19:52:00,
2013-03-06 13:01:00,51.0,8.0,-100.00,SW,220,19.0,26.0,18,0.00,,,-99.99,,2013-03-06 20:01:00,
2013-03-06 13:11:00,51.0,6.0,-100.00,SW,216,19.0,27.0,15,0.00,,,-99.99,,2013-03-06 20:11:00,
2013-03-06 13:22:00,51.0,7.0,-100.00,SW,230,21.0,28.0,16,0.00,,,-99.99,,2013-03-06 20:22:00,
2013-03-06 13:32:00,51.0,6.0,-100.00,SSW,202,18.0,29.0,15,0.00,,,-99.99,,2013-03-06 20:32:00,
2013-03-06 13:42:00,52.0,6.0,-100.00,South,188,16.0,24.0,15,0.00,,,-99.99,,2013-03-06 20:42:00,
2013-03-06 13:52:00,51.0,8.0,-100.00,South,188,19.0,26.0,17,0.00,,,-99.99,,2013-03-06 20:52:00,
2013-03-06 14:02:00,52.0,8.0,-100.00,South,188,16.0,24.0,17,0.00,,,-99.99,,2013-03-06 21:02:00,
2013-03-06 14:11:00,51.0,10.0,-100.00,South,188,18.0,26.0,19,0.00,,,-99.99,,2013-03-06 21:11:00,
2013-03-06 14:22:00,51.0,8.0,-100.00,South,188,18.0,24.0,17,0.00,,,-99.99,,2013-03-06 21:22:00,
2013-03-06 14:32:00,50.0,8.0,-100.00,South,188,19.0,26.0,18,0.00,,,-99.99,,2013-03-06 21:32:00,
2013-03-06 14:42:00,51.0,11.0,-100.00,South,188,18.0,24.0,20,0.00,,,-99.99,,2013-03-06 21:42:00,
2013-03-06 14:51:00,51.0,9.0,-100.00,South,188,21.0,26.0,19,0.00,,,-99.99,,2013-03-06 21:51:00,
2013-03-06 15:01:00,51.0,11.0,-100.00,South,188,20.0,27.0,19,0.00,,,-99.99,,2013-03-06 22:01:00,
2013-03-06 15:11:00,51.0,10.0,-100.00,South,188,17.0,24.0,18,0.00,,,-99.99,,2013-03-06 22:11:00,
2013-03-06 15:21:00,51.0,9.0,-100.00,South,188,16.0,23.0,18,0.00,,,-99.99,,2013-03-06 22:21:00,
2013-03-06 15:32:00,51.0,11.0,-100.00,South,188,16.0,21.0,20,0.00,,,-99.99,,2013-03-06 22:32:00,
2013-03-06 15:41:00,51.0,9.0,-100.00,South,188,11.0,18.0,18,0.00,,,-99.99,,2013-03-06 22:41:00,
2013-03-06 15:51:00,52.0,10.0,-100.00,South,188,15.0,21.0,18,0.00,,,-99.99,,2013-03-06 22:51:00,
2013-03-06 16:01:00,52.0,7.0,-100.00,South,188,14.0,21.0,16,0.00,,,-99.99,,2013-03-06 23:01:00,
2013-03-06 16:11:00,51.0,12.0,-100.00,South,188,15.0,23.0,21,0.00,,,-99.99,,2013-03-06 23:11:00,
2013-03-06 16:21:00,51.0,8.0,-100.00,South,188,12.0,17.0,17,0.00,,,-99.99,,2013-03-06 23:21:00,
2013-03-06 16:32:00,51.0,7.0,-100.00,South,188,16.0,26.0,16,0.00,,,-99.99,,2013-03-06 23:32:00,
2013-03-06 16:42:00,50.0,7.0,-100.00,South,188,22.0,27.0,17,0.00,,,-99.99,,2013-03-06 23:42:00,
2013-03-06 16:52:00,50.0,9.0,-100.00,South,188,22.0,28.0,19,0.00,,,-99.99,,2013-03-06 23:52:00,
2013-03-06 17:01:00,49.0,8.0,-100.00,South,188,22.0,29.0,18,0.00,,,-99.99,,2013-03-07 00:01:00,
2013-03-06 17:11:00,49.0,6.0,-100.00,South,188,23.0,30.0,17,0.00,,,-99.99,,2013-03-07 00:11:00,
2013-03-06 17:21:00,49.0,7.0,-100.00,South,188,21.0,30.0,18,0.00,,,-99.99,,2013-03-07 00:21:00,
2013-03-06 17:32:00,48.0,7.0,-100.00,South,188,19.0,24.0,18,0.00,,,-99.99,,2013-03-07 00:32:00,
2013-03-06 17:41:00,47.0,7.0,-100.00,South,188,17.0,29.0,20,0.00,,,-99.99,,2013-03-07 00:41:00,
2013-03-06 17:51:00,46.0,8.0,-100.00,SSW,202,17.0,24.0,21,0.00,,,-99.99,,2013-03-07 00:51:00,
2013-03-06 18:01:00,45.0,8.0,-100.00,SSW,212,16.0,21.0,22,0.00,,,-99.99,,2013-03-07 01:01:00,
2013-03-06 18:11:00,43.0,10.0,-100.00,SSW,212,15.0,19.0,25,0.00,,,-99.99,,2013-03-07 01:11:00,
2013-03-06 18:21:00,42.0,10.0,-100.00,SW,215,13.0,18.0,26,0.00,,,-99.99,,2013-03-07 01:21:00,
2013-03-06 18:31:00,41.0,10.0,-100.00,SW,226,11.0,14.0,27,0.00,,,-99.99,,2013-03-07 01:31:00,
2013-03-06 18:41:00,43.0,9.0,-100.00,SW,217,9.0,15.0,24,0.00,,,-99.99,,2013-03-07 01:41:00,
2013-03-06 18:51:00,40.0,11.0,-100.00,SW,226,9.0,12.0,29,0.00,,,-99.99,,2013-03-07 01:51:00,
2013-03-06 19:01:00,40.0,11.0,-100.00,SW,216,9.0,11.0,30,0.00,,,-99.99,,2013-03-07 02:01:00,
2013-03-06 19:11:00,41.0,11.0,-100.00,SSW,208,7.0,11.0,29,0.00,,,-99.99,,2013-03-07 02:11:00,
2013-03-06 19:21:00,41.0,11.0,-100.00,SW,217,7.0,9.0,29,0.00,,,-99.99,,2013-03-07 02:21:00,
2013-03-06 19:32:00,40.0,11.0,-100.00,SW,219,6.0,9.0,29,0.00,,,-99.99,,2013-03-07 02:32:00,
2013-03-06 19:41:00,40.0,11.0,-100.00,SW,219,6.0,9.0,29,0.00,,,-99.99,,2013-03-07 02:41:00,
2013-03-06 19:51:00,40.0,11.0,-100.00,SW,219,6.0,9.0,29,0.00,,,-99.99,,2013-03-07 02:51:00,
2013-03-06 20:02:00,43.0,10.0,-100.00,SSW,195,7.0,12.0,26,0.00,,,-99.99,,2013-03-07 03:02:00,
2013-03-06 20:11:00,42.0,11.0,-100.00,SSW,200,8.0,14.0,28,0.00,,,-99.99,,2013-03-07 03:11:00,
2013-03-06 20:21:00,43.0,11.0,-100.00,SSW,202,9.0,24.0,26,0.00,,,-99.99,,2013-03-07 03:21:00,
2013-03-06 20:32:00,43.0,12.0,-100.00,SSW,209,14.0,23.0,28,0.00,,,-99.99,,2013-03-07 03:32:00,
2013-03-06 20:42:00,42.0,11.0,-100.00,SSW,200,11.0,19.0,28,0.00,,,-99.99,,2013-03-07 03:42:00,
2013-03-06 20:52:00,44.0,9.0,-100.00,SSW,208,15.0,21.0,23,0.00,,,-99.99,,2013-03-07 03:52:00,
2013-03-06 21:01:00,44.0,8.0,-100.00,SSW,203,15.0,21.0,22,0.00,,,-99.99,,2013-03-07 04:01:00,
2013-03-06 21:11:00,44.0,9.0,-100.00,SSW,199,14.0,21.0,23,0.00,,,-99.99,,2013-03-07 04:11:00,
2013-03-06 21:21:00,43.0,10.0,-100.00,SSW,200,10.0,15.0,25,0.00,,,-99.99,,2013-03-07 04:21:00,
2013-03-06 21:31:00,44.0,10.0,-100.00,SSW,199,10.0,15.0,24,0.00,,,-99.99,,2013-03-07 04:31:00,
2013-03-06 21:42:00,43.0,10.0,-100.00,SSW,192,9.0,15.0,26,0.00,,,-99.99,,2013-03-07 04:42:00,
2013-03-06 21:51:00,44.0,10.0,-100.00,SSW,193,10.0,20.0,25,0.00,,,-99.99,,2013-03-07 04:51:00,
2013-03-06 22:01:00,43.0,11.0,-100.00,South,186,12.0,19.0,26,0.00,,,-99.99,,2013-03-07 05:01:00,
2013-03-06 22:12:00,43.0,10.0,-100.00,South,176,13.0,21.0,25,0.00,,,-99.99,,2013-03-07 05:12:00,
2013-03-06 22:22:00,44.0,12.0,-100.00,South,176,13.0,21.0,27,0.00,,,-99.99,,2013-03-07 05:22:00,
2013-03-06 22:32:00,45.0,12.0,-100.00,SSW,202,12.0,23.0,25,0.00,,,-99.99,,2013-03-07 05:32:00,
2013-03-06 22:42:00,42.0,11.0,-100.00,SSW,209,7.0,17.0,27,0.00,,,-99.99,,2013-03-07 05:42:00,
2013-03-06 22:52:00,43.0,13.0,-100.00,South,175,10.0,14.0,29,0.00,,,-99.99,,2013-03-07 05:52:00,
2013-03-06 23:01:00,42.0,12.0,-100.00,South,189,12.0,20.0,28,0.00,,,-99.99,,2013-03-07 06:01:00,
2013-03-06 23:11:00,44.0,13.0,-100.00,South,169,15.0,34.0,27,0.00,,,-99.99,,2013-03-07 06:11:00,
2013-03-06 23:21:00,45.0,12.0,-100.00,South,178,12.0,23.0,26,0.00,,,-99.99,,2013-03-07 06:21:00,
2013-03-06 23:32:00,43.0,12.0,-100.00,South,174,12.0,24.0,28,0.00,,,-99.99,,2013-03-07 06:32:00,
2013-03-06 23:41:00,43.0,13.0,-100.00,South,171,12.0,15.0,29,0.00,,,-99.99,,2013-03-07 06:41:00,
2013-03-06 23:51:00,43.0,12.0,-100.00,SSE,167,12.0,21.0,29,0.00,,,-99.99,,2013-03-07 06:51:00,